Flag for China

Past Weather in 23°01'59"N, 113°43'00"E, China — Yesterday and Last 2 Weeks

Currently: 52 °F. Light rain. More clouds than sun. (Weather station: Canton Airport, China). See more current weather

Past Weather in 23°01'59"N, 113°43'00"E — Graph

°F

23°01'59"N, 113°43'00"E Temperature Yesterday

Maximum temperature yesterday: 57 °F (at 3:00 pm)
Minimum temperature yesterday: 50 °F (at 12:00 am)
Average temperature yesterday: 53 °F

High & Low Weather Summary for the Past Weeks

 TemperatureHumidityPressure
High84 °F (Feb 18, 3:30 pm)100% (Feb 25, 12:30 am)30.30 "Hg (Feb 25, 12:30 am)
Low45 °F (Feb 25, 12:30 am)42% (Feb 14, 3:30 pm)29.83 "Hg (Feb 20, 3:30 pm)
Average63 °F76%30.08 "Hg
* Reported Feb 14 11:00 am — Feb 29 11:30 am, 23°01'59"N, 113°43'00"E. Weather by CustomWeather, © 2024

Note: Actual official high and low records may vary slightly from our data, if they occured in-between our weather recording intervals... More about our weather records

23°01'59"N, 113°43'00"E Weather History for the Previous 24 Hours

Scroll right to see more
 ConditionsComfort  
Time TempWeatherWind HumidityBarometerVisibility
11:30 am
Thu, Feb 29
52 °FDrizzle. More clouds than sun.13 mph94%30.15 "HgN/A
11:00 am52 °FDrizzle. More clouds than sun.13 mph94%30.12 "Hg5 mi
10:30 am52 °FDrizzle. More clouds than sun.10 mph100%30.12 "Hg4 mi
9:30 am54 °FMore clouds than sun.8 mph88%30.12 "Hg5 mi
9:00 am54 °FMore clouds than sun.13 mph94%30.09 "Hg5 mi
8:30 am55 °FMore clouds than sun.8 mph94%30.09 "Hg5 mi
8:00 am54 °FMore clouds than sun.6 mph94%30.07 "Hg5 mi
7:30 am54 °FMore clouds than sun.3 mph94%30.07 "Hg5 mi
7:00 am54 °FSprinkles. More clouds than sun.3 mph94%30.07 "Hg5 mi
6:30 am54 °FSprinkles. Mostly cloudy.3 mph94%30.07 "HgN/A
6:00 am54 °FMostly cloudy.6 mph88%30.07 "HgN/A
5:30 am54 °FMostly cloudy.6 mph88%30.07 "HgN/A
5:00 am54 °FMostly cloudy.8 mph88%30.07 "HgN/A
4:30 am54 °FOvercast.6 mph94%30.07 "HgN/A
4:00 am54 °FOvercast.8 mph94%30.07 "HgN/A
3:30 am55 °FOvercast.3 mph88%30.07 "HgN/A
3:00 am55 °FOvercast.1 mph88%30.07 "HgN/A
2:30 am54 °FOvercast.3 mph94%30.07 "HgN/A
2:00 am54 °FOvercast.3 mph94%30.07 "HgN/A
1:30 am54 °FOvercast.3 mph94%30.07 "HgN/A
1:00 am54 °FOvercast.3 mph94%30.07 "HgN/A
12:30 am54 °FOvercast.3 mph94%30.09 "HgN/A
12:00 am54 °FOvercast.6 mph94%30.09 "Hg4 mi
11:30 pm
Wed, Feb 28
54 °FOvercast.3 mph94%30.09 "Hg4 mi
11:00 pm54 °FOvercast.6 mph94%30.09 "Hg4 mi
10:30 pm55 °FOvercast.1 mph88%30.07 "Hg4 mi
9:30 pm55 °FOvercast.3 mph88%30.07 "Hg5 mi
9:00 pm55 °FOvercast.3 mph88%30.07 "Hg5 mi
8:30 pm54 °FOvercast.3 mph94%30.07 "Hg5 mi
8:00 pm54 °FMostly cloudy.6 mph94%30.07 "Hg4 mi
7:30 pm54 °FOvercast.8 mph94%30.07 "Hg5 mi
7:00 pm55 °FOvercast.6 mph82%30.07 "Hg5 mi
6:30 pm55 °FOvercast.8 mph82%30.04 "Hg5 mi
6:00 pm55 °FOvercast.8 mph82%30.04 "Hg5 mi
5:30 pm57 °FOvercast.3 mph77%30.01 "Hg5 mi
5:00 pm57 °FOvercast.3 mph77%30.01 "Hg5 mi
4:30 pm57 °FOvercast.6 mph77%30.04 "HgN/A
4:00 pm57 °FOvercast.6 mph77%30.04 "HgN/A
3:30 pm57 °FOvercast.3 mph77%30.04 "HgN/A
3:00 pm57 °FOvercast.3 mph72%30.04 "HgN/A
2:30 pm55 °FOvercast.6 mph77%30.04 "HgN/A
2:00 pm55 °FOvercast.3 mph77%30.07 "HgN/A
1:30 pm55 °FOvercast.8 mph77%30.07 "HgN/A
1:00 pm55 °FOvercast.3 mph77%30.09 "HgN/A
12:30 pm54 °FOvercast.1 mph77%30.09 "HgN/A
12:00 pm54 °FOvercast.3 mph77%30.12 "HgN/A
Weather by CustomWeather, © 2024

See weather overview